Wind_Speed
12 12 13 13 11 10 11 10 11 10 9 9 10 12 12 16 14 7 8 3 1 6 1 4 5 3 5 3 4 2 2 7 8 4 5 2 3 1 0 4 4 5 2 11 24
13 13 13 13 13 11 11 10 10 9 8 9 10 10 12 15 10 12 7 7 6 6 4 6 2 5 3 1 1 3 3 6 5 4 5 2 5 3 4 2 4 6 8 20 24
14 14 14 14 13 12 11 10 10 9 7 8 9 10 10 11 10 2 2 4 11 12 8 6 5 6 2 0 1 2 3 7 6 6 6 3 3 4 2 3 3 7 13 19 23
16 15 15 14 14 12 10 9 9 8 7 7 7 9 9 4 3 4 5 2 7 9 8 5 5 4 2 1 1 4 3 5 7 6 6 6 5 3 6 2 2 4 15 19 20
17 17 16 15 13 12 10 9 8 6 6 5 6 7 4 8 9 0 4 0 5 7 8 5 3 3 4 1 3 7 6 7 9 9 7 6 8 6 4 3 3 10 15 18 18
18 17 16 15 13 11 10 8 7 6 5 4 4 4 6 11 4 2 2 4 6 8 6 6 1 3 1 1 3 7 10 10 9 8 5 8 5 3 4 3 7 12 15 15 18
19 18 18 15 13 11 9 7 6 5 4 3 2 2 7 8 3 3 2 5 5 5 7 4 2 7 2 4 5 5 10 8 3 6 5 5 10 7 3 4 8 10 12 14 16
20 20 19 16 13 10 7 5 6 5 4 2 1 2 6 4 6 11 7 8 5 4 4 3 4 3 4 2 3 6 6 5 3 6 3 7 8 4 1 3 5 8 9 11 14
22 22 20 17 12 7 3 5 5 5 3 3 2 5 5 3 9 8 10 10 8 6 4 3 5 2 5 7 7 5 3 5 1 5 4 4 10 9 3 3 4 7 8 9 10
23 22 19 17 10 1 6 7 6 6 3 2 4 5 7 6 6 7 9 7 6 7 8 8 7 9 7 9 5 4 6 5 5 7 7 7 11 4 3 3 3 3 3 6 8
25 23 18 14 5 9 12 7 5 6 9 4 1 4 6 1 6 9 10 10 8 9 12 9 11 13 1 3 5 8 9 8 3 4 7 6 11 4 2 2 3 3 3 4 5
25 23 17 13 1 14 7 5 4 5 4 12 8 8 7 4 10 11 11 11 9 12 6 8 13 4 0 3 7 10 10 8 2 1 6 8 11 3 2 1 2 5 5 4 4
26 22 16 11 4 9 8 4 2 5 5 7 6 6 3 9 11 15 14 11 11 10 13 14 4 6 4 8 10 12 9 7 5 3 5 8 11 3 4 3 2 0 3 4 4
27 22 15 2 3 5 6 6 4 4 6 7 8 6 8 5 7 10 17 12 6 12 8 12 7 8 8 8 6 14 3 5 5 7 6 3 2 5 2 2 3 1 5 6 7
31 23 11 11 0 5 3 2 5 6 5 9 7 6 6 7 14 10 10 9 10 9 9 10 11 13 10 9 3 4 2 5 5 11 6 6 7 8 0 1 4 5 4 6 6
33 19 1 6 4 5 2 3 4 6 3 8 8 12 13 9 7 12 13 9 2 6 11 5 2 5 11 2 6 3 8 9 8 11 11 7 5 11 5 6 4 4 3 5 7
29 10 10 7 2 2 3 6 6 5 4 9 11 12 15 10 10 17 15 15 10 10 11 14 13 10 9 12 9 10 13 9 8 8 1 5 6 9 6 5 4 2 3 3 7
17 1 4 8 3 1 8 7 6 3 4 5 7 13 13 13 11 12 15 14 12 9 9 12 15 15 12 14 11 16 14 8 5 5 3 6 4 5 5 5 4 2 2 2 6
5 2 2 3 8 3 6 8 1 5 2 8 12 14 12 13 6 11 13 13 14 14 7 9 3 5 3 6 10 8 10 6 6 4 8 4 2 9 6 6 5 7 4 4 6
1 3 5 3 9 6 7 3 1 1 3 6 9 12 14 18 11 11 12 12 15 14 14 2 5 3 8 8 4 8 5 9 7 3 6 5 3 3 5 7 8 6 4 5 5
4 4 4 6 7 6 8 3 3 2 2 3 7 9 11 16 14 15 14 9 14 16 12 9 6 8 7 6 8 6 10 5 7 5 7 5 6 10 5 6 8 5 3 7 7
5 3 7 2 6 4 7 5 2 7 5 5 5 8 10 15 15 11 9 3 7 10 12 13 5 6 7 4 1 6 4 9 6 5 3 8 5 7 7 7 7 5 6 8 8
3 2 6 4 6 7 7 8 5 8 6 3 6 9 9 11 12 12 8 5 8 11 10 11 7 7 9 10 6 5 0 5 7 7 10 7 4 7 8 9 5 5 8 8 9
4 4 4 5 4 8 5 9 9 6 10 6 4 5 10 10 10 11 8 5 11 6 6 11 6 10 2 5 3 4 6 4 10 10 11 9 10 6 4 7 6 6 7 8 9
2 1 4 7 9 9 4 3 8 6 7 5 6 12 14 11 13 9 11 9 8 6 7 11 6 5 2 6 1 2 5 5 8 10 10 11 7 7 4 7 7 9 9 8 9
4 3 2 2 3 7 7 7 9 6 4 7 7 8 11 8 13 13 11 10 8 9 10 6 5 6 8 6 6 8 10 10 10 9 8 11 10 5 5 7 9 9 9 9 9
4 2 4 5 5 6 6 5 5 2 4 2 5 11 12 8 9 9 8 7 7 7 4 4 7 7 9 6 6 11 9 6 8 6 7 9 8 5 7 9 10 9 8 9 9
Wind_Direction
347 340 335 328 315 303 294 292 293 297 307 317 321 323 324 326 324 305 266 360 175 184 48 155 184 225 205 237 245 236 269 70 61 50 55 92 221 76 308 157 197 155 55 120 154
346 339 334 328 321 306 293 285 287 288 299 309 315 320 324 328 309 265 268 248 198 223 240 256 213 198 192 148 223 287 333 36 356 23 32 101 231 134 216 166 169 137 103 132 153
344 338 333 328 321 310 292 282 280 282 291 301 312 315 325 325 270 167 1 248 219 231 261 283 270 264 221 168 63 38 346 334 355 336 322 347 221 188 261 228 303 186 155 155 161
344 338 332 326 319 310 294 277 273 274 283 292 308 313 318 286 242 111 2 23 204 198 234 257 245 233 257 221 38 276 297 324 322 342 297 291 318 253 237 355 37 164 162 168 173
344 340 333 326 318 309 292 274 265 264 267 283 307 322 305 231 250 256 325 86 161 186 222 233 251 229 224 248 193 251 333 300 307 309 278 275 267 298 288 209 190 145 164 177 182
346 342 335 327 317 305 291 268 255 248 250 274 306 328 261 245 115 143 348 205 210 204 195 217 271 330 219 249 288 332 308 296 302 306 292 272 293 274 124 146 175 167 173 183 188
346 341 335 329 316 305 287 259 237 225 228 252 296 342 252 255 163 212 300 191 181 215 191 179 249 267 311 193 3 305 301 283 285 340 298 270 252 242 360 187 169 175 179 184 189
346 341 336 329 315 298 277 232 207 202 203 215 219 262 258 214 234 252 228 200 203 227 231 230 245 276 315 298 217 295 269 305 83 336 51 253 288 102 114 210 200 180 181 191 195
346 343 338 331 317 293 242 180 180 176 176 163 242 250 241 211 220 203 195 195 169 167 168 198 228 268 219 249 230 220 322 321 70 49 337 258 307 83 28 236 241 176 184 196 201
347 343 338 329 319 258 154 143 132 122 144 200 250 235 232 180 152 163 182 193 186 159 162 210 218 230 215 237 268 346 312 322 329 3 316 296 277 93 25 270 211 185 203 204 220
346 345 339 329 320 140 117 124 194 179 210 250 137 293 118 95 170 184 177 185 194 209 204 200 225 221 241 344 314 303 289 291 334 17 305 311 306 27 31 216 245 272 261 275 249
347 346 339 336 205 161 160 243 6 360 211 219 245 267 257 294 171 167 183 198 202 200 200 199 226 175 46 252 253 260 279 268 296 318 289 307 298 318 265 134 322 334 316 315 292
347 345 338 336 134 166 216 241 188 324 249 156 194 238 218 199 188 178 199 201 205 200 204 225 126 111 227 216 240 242 268 308 314 330 240 302 255 236 176 214 182 287 13 17 6
344 340 331 56 131 176 219 207 238 296 230 136 185 160 169 218 169 152 202 191 200 215 201 235 146 215 223 238 259 264 147 292 288 280 333 343 346 89 108 234 213 213 25 354 17
342 336 321 169 13 208 121 274 232 208 181 152 144 134 163 217 125 178 180 195 210 197 215 201 213 213 232 239 236 322 335 287 286 266 273 171 266 96 116 119 179 69 49 39 27
340 333 293 175 221 225 232 186 206 229 130 152 147 177 177 193 162 146 182 226 349 185 218 231 137 237 243 252 229 319 249 236 244 263 246 91 298 104 62 43 142 96 56 53 34
338 325 170 181 108 199 227 195 214 264 148 155 176 178 190 171 157 171 184 193 198 196 201 210 217 221 233 243 201 235 244 239 218 209 59 95 256 56 71 86 78 7 46 21 14
338 92 198 193 224 200 188 218 242 81 167 141 174 181 192 167 160 184 188 202 217 252 195 202 201 208 200 238 261 209 253 266 224 230 135 138 264 79 64 96 96 39 39 34 18
7 123 191 217 203 203 230 218 72 119 101 165 160 176 188 184 189 186 201 209 197 213 238 189 184 125 234 225 239 152 221 316 286 207 256 73 144 130 106 143 130 94 93 48 13
293 198 117 213 183 222 235 281 175 14 346 211 194 198 183 186 197 203 182 203 203 201 248 106 168 156 140 175 183 281 109 203 213 263 274 106 270 19 127 143 140 128 106 84 79
236 213 43 149 171 220 226 217 277 242 265 252 218 193 208 180 205 194 176 142 202 189 215 227 272 140 183 224 160 177 214 236 308 314 315 279 74 79 109 145 153 119 108 96 92
288 194 153 175 211 226 220 219 24 260 215 267 258 260 214 180 200 192 189 80 173 163 203 215 257 194 99 88 286 289 352 266 267 175 230 302 301 72 115 131 139 115 101 83 83
309 98 180 266 222 210 209 250 252 261 261 220 228 227 209 204 201 206 180 119 175 199 194 173 238 171 171 171 185 245 164 313 281 280 282 296 327 103 127 145 134 111 119 106 99
272 170 160 217 287 275 211 229 236 210 261 254 252 225 195 194 208 197 209 165 184 212 349 214 243 259 9 21 71 196 230 258 286 282 295 273 297 138 97 173 162 127 122 104 101
241 66 0 186 208 219 217 272 230 234 215 225 201 228 195 189 191 189 169 147 175 159 198 221 205 235 67 104 152 251 269 263 268 287 287 308 307 11 32 176 158 129 126 120 105
322 318 198 274 193 218 191 226 237 200 237 178 247 198 202 225 205 184 185 185 173 187 183 219 149 178 179 189 230 261 277 272 268 269 262 269 266 63 116 141 163 147 138 127 113
8 257 279 144 196 227 210 223 190 239 124 93 142 139 127 96 65 78 81 95 85 169 138 223 151 202 253 185 255 262 262 287 279 264 275 271 57 128 145 159 158 150 146 132 124
Height
814 811 808 806 805 804 803 802 801 800 799 799 797 795 793 791 789 787 783 783 783 783 783 784 784 782 781 775 774 772 781 793 790 788 783 770 777 772 771 776 776 777 779 780 795
813 810 807 805 803 802 801 800 800 799 799 798 796 795 794 791 788 783 782 781 783 783 783 780 776 778 772 773 771 773 784 787 774 770 774 770 772 773 778 779 782 783 784 790 797
812 809 806 804 802 800 798 798 798 797 797 797 796 794 793 791 786 775 779 778 780 781 782 780 777 772 772 770 773 774 788 773 770 768 765 767 770 768 776 781 773 779 785 791 796
810 807 805 802 799 798 796 796 796 796 796 796 795 794 792 792 794 778 778 777 778 780 781 777 772 773 775 779 774 785 771 769 767 765 767 770 762 768 769 770 767 769 779 787 792
808 805 803 800 797 795 794 793 794 794 795 795 795 794 793 787 779 779 779 778 779 780 778 775 774 773 780 777 775 779 771 764 761 762 764 763 767 768 768 763 768 769 778 783 788
806 803 801 798 795 793 791 791 792 793 793 794 794 793 793 791 778 779 779 779 779 778 776 775 773 771 774 775 776 773 769 765 761 761 762 770 767 769 765 765 769 771 776 780 784
805 801 798 795 792 790 789 789 790 791 792 793 793 793 790 778 778 779 779 778 778 777 774 776 775 772 770 773 770 771 779 766 763 763 766 764 775 775 764 766 771 772 774 777 781
803 799 796 793 789 787 787 788 789 790 792 793 793 795 782 776 777 777 778 778 778 778 777 777 776 770 770 766 769 779 776 791 768 767 767 769 784 770 767 768 770 773 776 778 780
801 797 793 790 787 785 785 787 788 790 792 793 794 792 777 774 774 773 775 773 775 776 777 778 774 771 770 778 783 783 799 795 781 769 770 773 776 766 767 768 769 772 774 777 780
799 795 791 787 784 784 785 787 790 791 792 794 794 793 772 767 770 772 774 774 771 773 776 774 771 776 774 782 806 802 796 789 790 775 771 772 769 758 768 769 770 770 772 775 780
797 793 788 785 783 784 787 790 792 790 788 770 770 770 766 769 770 770 772 772 770 771 782 774 784 790 777 783 787 789 791 790 778 774 778 776 771 769 772 772 771 769 769 770 772
795 790 786 783 782 784 786 781 776 779 772 772 774 774 771 770 768 767 771 774 775 782 776 785 791 769 778 782 787 786 788 785 776 776 778 771 776 770 771 772 771 772 770 769 770
793 788 785 782 781 785 784 780 779 779 770 770 768 767 764 768 762 765 767 767 776 781 782 783 775 772 782 784 787 779 785 783 787 777 772 777 774 777 771 772 771 769 768 767 770
790 785 782 781 786 783 781 779 779 780 767 774 767 762 764 760 768 760 763 767 775 782 779 778 768 782 782 784 779 787 769 777 783 787 797 778 797 776 771 774 770 767 767 768 767
786 781 779 780 782 780 779 778 778 779 786 764 763 760 757 762 760 768 764 765 776 780 783 782 780 783 788 778 774 780 771 776 778 780 780 784 789 780 774 774 770 768 771 767 767
781 777 776 779 780 778 777 778 779 779 791 768 756 762 766 758 760 762 767 762 761 776 774 768 767 773 771 768 771 771 775 774 773 774 795 782 789 775 771 773 768 767 772 767 766
776 773 774 777 774 776 777 776 777 777 755 770 764 757 758 765 765 766 773 777 781 797 792 779 775 765 767 777 768 775 778 797 804 798 800 771 787 773 766 764 769 771 769 766 765
772 771 773 774 775 775 776 771 785 760 755 746 750 754 765 759 762 765 771 778 767 768 769 788 795 768 757 768 769 772 771 790 824 805 789 771 791 777 764 762 767 768 766 767 766
771 773 774 774 773 775 769 773 759 751 747 752 754 765 766 762 762 767 769 769 764 765 778 780 780 757 761 756 760 772 785 756 777 776 791 773 767 763 764 768 769 770 768 769 767
774 771 771 772 773 774 766 775 758 750 748 747 760 753 768 764 768 767 768 754 760 755 752 767 785 759 764 758 761 763 752 783 774 810 813 781 786 778 773 774 770 772 771 769 767
773 761 772 772 775 766 767 759 758 745 748 752 751 755 749 758 757 761 760 754 748 754 753 757 767 774 761 767 765 773 770 767 765 777 796 798 783 756 767 767 771 773 768 767 767
769 761 772 774 770 759 761 757 766 749 743 748 748 743 746 746 756 754 757 749 743 750 769 756 757 776 769 761 759 756 763 763 782 793 778 788 786 760 764 767 769 770 769 768 769
763 762 772 772 766 763 755 757 753 749 745 746 747 742 737 745 760 749 749 743 747 752 755 756 766 786 785 771 762 766 766 761 761 763 786 799 782 762 765 769 771 770 770 772 772
769 764 765 765 757 755 759 756 755 742 746 743 744 739 745 746 741 749 750 750 746 745 759 749 750 764 785 782 762 777 772 767 769 783 777 773 771 757 770 775 775 773 771 773 774
767 758 762 763 758 755 757 755 755 752 741 740 744 742 741 749 747 749 743 753 752 764 753 744 764 764 763 763 766 771 773 771 780 774 788 771 774 761 768 771 771 772 775 776 777
775 770 761 756 758 758 765 751 752 743 745 742 746 736 732 740 737 746 742 744 752 754 752 744 771 764 777 768 771 778 767 766 768 770 772 770 770 764 770 770 775 774 776 779 780
781 779 774 765 753 755 747 749 747 742 741 733 732 732 741 747 735 731 731 740 744 747 754 753 762 773 781 771 775 786 762 762 763 758 766 776 768 765 772 774 773 775 776 779 781